Location: Newark
(41.0400°S, 62.7845°W)
Time: 00:23:11
(UTC+00:00)

Vanguard 2 - Pass Details

Date: 09 December 2021
Orbit: 554 x 2935 km, 32.9° (Epoch: 27 January)

Event Time Altitude Azimuth Distance (km) Brightness Sun altitude
Rises 06:09:30 0° 273° (W) 6,775 12.0 -19.7°
Reaches altitude 10° 06:14:06 10° 275° (W) 5,776 11.6 -19.3°
Maximum altitude 06:31:20 61° 349° (NNW) 2,811 10.0 -17.5°
Drops below altitude 10° 06:43:44 10° 64° (ENE) 4,300 11.5 -16.1°
Sets 06:46:38 0° 68° (ENE) 5,015 11.9 -15.7°
